User: anonymous   Login
Location: Peebles
(55.6412°N, 3.1714°W)
Time: 15:47:17
(UTC+01:00)
Language:

deb Kosmos-2123 - Orbit

View from above orbital plane
View from above orbital plane
View from above satellite
View from above satellite

Ground track
Ground track

The orbit data is extracted from the following two-line orbital elements,

1 21091U 91007C   22183.54890713  .00000145  00000-0  12493-3 0  9995
2 21091  82.9311 285.5309 0027448 202.5130 170.7640 13.79990433579676
Epoch (UTC): 02 July 2022 13:10:25
Eccentricity: 0.0027448
inclination: 82.9311°
perigee height: 944 km
apogee height: 984 km
right ascension of ascending node: 285.5309°
argument of perigee: 202.5130°
revolutions per day: 13.79990433
mean anomaly at epoch: 170.7640°
orbit number at epoch: 57967

The dashed part of the orbit path shows where the satellite is in the earth's shadow,  

DLR